Regional Weather Roundup
Issued by NWS

Home | Current Version | Previous Version | Text Only | Print | Product List | Glossary Off
Versions: 1 2 3 4 5 6 7 8 9 10 11 12 13 14 15 16 17 18 19 20 21 22 23 24 25 26 27 28 29 30 31 32 33 34 35 36 37 38 39 40 41 42 43 44 45 46 47 48 49 50

000
ASUS43 KMKX 310700
RWRWI

WISCONSIN REGIONAL WEATHER ROUNDUP
NATIONAL WEATHER SERVICE MILWAUKEE/SULLIVAN WI
200 AM CDT THU JUL 31 2014

NOTE: "FAIR" INDICATES FEW OR NO CLOUDS BELOW 12,000 FEET WITH NO
SIGNIFICANT WEATHER AND/OR OBSTRUCTIONS TO VISIBILITY.

WIZ001-002-006>008-014>016-023>028-310800-
NORTHWEST WISCONSIN

CITY           SKY/WX    TMP DP  RH WIND       PRES   REMARKS
SUPERIOR ARPT  CLOUDY    63  58  83 W5        29.98F
ASHLAND        PTCLDY    56  55  97 W5        29.98F
HAYWARD        FOG       57  57 100 CALM      30.01S VSB 1
SIREN          CLEAR     61  57  86 CALM      30.02S
RICE LAKE      CLEAR     58  55  90 CALM      30.03S FOG
LADYSMITH      CLOUDY    61  59  95 CALM      30.03S
EAU CLAIRE     NOT AVBL
MENOMONIE      SUNNY     64  56  77 W6        30.02F
NEW RICHMOND   CLEAR     58  56  93 CALM      30.03F
OSCEOLA        CLEAR     58  58 100 CALM      30.05F
$$

WIZ003>005-009-010-017-018-310800-
NORTH CENTRAL WISCONSIN

CITY           SKY/WX    TMP DP  RH WIND       PRES   REMARKS
WOODRUFF       PTCLDY    55  47  76 CALM      30.00S
RHINELANDER    PTCLDY    53  53 100 CALM      30.00F
EAGLE RIVER    FOG       49  49 100 CALM      29.99F VSB 1/2
LAND O LAKES   FOG       47  47 100 CALM      30.01S VSB 1/2
PHILLIPS       CLEAR     57  56  99 CALM      30.00S FOG
TOMAHAWK       FOG       51  50  97 CALM      30.01S VSB 1/2
MEDFORD        CLOUDY    59  58  96 NW3       30.01S
MERRILL        MOCLDY    53  53  99 CALM      30.00S
$$

WIZ029-030-035-036-043>047-310800-
CENTRAL WISCONSIN

CITY           SKY/WX    TMP DP  RH WIND       PRES   REMARKS
WAUSAU         MOCLDY    60  58  92 CALM      29.98F
MOSINEE        MOCLDY    59  59 100 W5        30.01S
MARSHFIELD     PTCLDY    60  58  92 W6        30.00F
STEVENS POINT  CLOUDY    59  56  90 CALM      30.01S
WAUPACA        MOCLDY    63  59  88 W3        29.99F
WAUTOMA        NOT AVBL
WISC RAPIDS    CLOUDY    61  59  93 SW5       30.01F
CAMP DOUGLAS   NOT AVBL
$$

WIZ011>013-019>022-031-037>040-048>050-310800-
NORTHEAST WISCONSIN

CITY           SKY/WX    TMP DP  RH WIND       PRES   REMARKS
ANTIGO         PTCLDY    50  50 100 CALM      30.01S
STURGEON BAY   CLEAR     61  55  82 NW7       29.97F
GREEN BAY      CLEAR     58  57  97 W3        29.97F
MANITOWOC      NOT AVBL
APPLETON       CLEAR     57  54  88 SW6       29.99F
CLINTONVILLE   CLEAR     54  52  94 CALM      29.98F
OSHKOSH        MOCLDY    62  56  80 W3        29.99S
$$

WIZ032>034-041-042-053>061-310800-
SOUTHWEST WISCONSIN

CITY           SKY/WX    TMP DP  RH WIND       PRES   REMARKS
LA CROSSE      CLEAR     65  61  87 SE6       30.02S
SPARTA           N/A     57  56  97 CALM      30.03F FOG
VIROQUA        FAIR      61  61 100 W3        30.05S
BOSCOBEL       CLEAR     61  59  93 SW5       30.04S
PRAIRIE DU CHI CLEAR     60  58  90 CALM      30.04F
PLATTEVILLE    FAIR      61  57  87 CALM      30.06S
$$

WIZ056-057-062-063-064-067-068-310800-
SOUTH CENTRAL WISCONSIN

CITY           SKY/WX    TMP DP  RH WIND       PRES   REMARKS
BARABOO/DELLS  MOCLDY    62  56  79 CALM      30.02F
LONE ROCK      NOT AVBL
WATERTOWN      PTCLDY    57  55  91 CALM      30.01S
MADISON        CLOUDY    65  56  72 NW5       30.02S
MIDDLETON      CLOUDY    64  57  79 W6        30.03S
MONROE         CLEAR     63  55  77 W13       30.04S
JANESVILLE     PTCLDY    57  54  88 CALM      30.02F
$$

WIZ051-052-058>065-066-070>072-310800-
SOUTHEAST WISCONSIN

CITY           SKY/WX    TMP DP  RH WIND       PRES   REMARKS
MILWAUKEE      MOCLDY    63  55  75 CALM      30.01S
WAUKESHA       CLOUDY    57  52  82 SW5       30.02F
MILWAUKEE/TIMM CLOUDY    61  54  77 CALM      30.02S
RACINE         PTCLDY    61  56  83 SW8       30.02F
BURLINGTON     PTCLDY    51  51  99 S3        30.02S
KENOSHA        CLEAR     59  57  93 SW7       30.02F
FOND DU LAC    PTCLDY    61  55  81 SW5       30.00S
SHEBOYGAN      PTCLDY    57  55  93 SW5       29.98F
WEST BEND      MOCLDY    59  54  82 S5        30.00F
JUNEAU         PTCLDY    59  52  76 W3        30.02S
$$

LSZ147-162-310800-
LAKE SUPERIOR

STATION/POSITION TIME  TEMP    WIND        PRES    WAVE
                       AIR SEA DIR/SP/G            HT/PER
                 (UTC) (F)     (DEG/KT/KT) (MB)    (FT/S)
W MID LAKE BUOY  0550   50 42  280/  4/  6 1014.4F   1
PORT WING        0600   60     150/  1/  3 1015.2
SAXON HARBOR     0600          190/  3/  5 1014.9S
$$

LMZ867-665-643>646-310800-
LAKE MICHIGAN

STATION/POSITION TIME  TEMP    WIND        PRES    WAVE
                       AIR SEA DIR/SP/G            HT/PER
                 (UTC) (F)     (DEG/KT/KT) (MB)    (FT/S)
N MID LAKE BUOY  0550   57 55  240/  6/  8 1014.1R   1/ 3
NORTHPORT PIER   0600   60     290/  4/  6 1014.6S
SISTER BAY       0540   62     340/ 10/ 11   N/A
ALGOMA LAKESHORE 0606             CALM       N/A
KEWAUNEE LAKESHO 0600   58        CALM     1014.4S
SHEBOYGAN LAKESH 0600   63     240/  8/  8 1015.5F
PORT WASHINGTON  0600   63     290/  2/  3 1016.3F
ATWATER BUOY     0600   65     220/ 10     1016.9F
MILWAUKEE LAKESH 0600   64     240/ 11/ 12   N/A
S MID LAKE BUOY  0550   61 60  210/  6/  8 1016.7S   0
KENOSHA   LAKESH 0600   62     230/  7/ 11 1016.6S
$$

TC  - TEMPERATURE IN CELSIUS
VSB - VISIBILITY IN STATUTE MILES
WCI - WIND CHILL INDEX
HX  - HEAT INDEX



USA.gov is the U.S. government's official web portal to all federal, state and local government web resources and services.